User: anonymous   Login
Location: Unspecified
(20.0000°S, 0.0000°E)
Time: 22:52:29
(UTC+00:00)
Language:

LilacSat-2 - Orbit

View from above orbital plane
View from above orbital plane
View from above satellite
View from above satellite

Ground track
Ground track

The orbit data is extracted from the following two-line orbital elements,

1 40908U 15049K   19286.71867262  .00000512  00000-0  31830-4 0  9992
2 40908  97.4835 285.2653 0016334 152.7727 278.7729 15.13866572224518
Epoch (UTC): 13 October 2019 17:14:53
Eccentricity: 0.0016334
inclination: 97.4835°
perigee height: 513 km
apogee height: 536 km
right ascension of ascending node: 285.2653°
argument of perigee: 152.7727°
revolutions per day: 15.13866572
mean anomaly at epoch: 278.7729°
orbit number at epoch: 22451

The dashed part of the orbit path shows where the satellite is in the earth's shadow,  

DLR